User: anonymous   Login
Location: Unspecified
(0.0000°N, 0.0000°E)
Time: 12:51:14
(UTC+00:00)
Language:

Nimbus 4 - Orbit

View from above orbital plane
View from above orbital plane
View from above satellite
View from above satellite

Ground track
Ground track

The orbit data is extracted from the following two-line orbital elements,

1 04362U 70025A   17351.39083130 -.00000034  00000-0  18391-4 0  9997
2 04362 100.0056 254.9019 0007629   4.5591 119.2705 13.44590917340169
Epoch (UTC): 17 December 2017 09:22:47
Eccentricity: 0.0007629
inclination: 100.0056°
perigee height: 1086 km
apogee height: 1098 km
right ascension of ascending node: 254.9019°
argument of perigee: 4.5591°
revolutions per day: 13.44590917
mean anomaly at epoch: 119.2705°
orbit number at epoch: 34016

The dashed part of the orbit path shows where the satellite is in the earth's shadow,  

DLR